Regional Weather Roundup
Issued by NWS Charleston, SC

Current Version | Previous Version | Text Only | Print | Product List | Glossary Off
Versions: 1 2 3 4 5 6 7 8 9 10 11 12 13 14 15 16 17 18 19 20 21 22 23 24 25 26 27 28 29 30 31 32 33 34 35 36 37 38 39 40 41 42 43 44 45 46 47 48 49 50

000
ASUS42 KCHS 300028
RWRCHS

REGIONAL WEATHER ROUNDUP
NATIONAL WEATHER SERVICE CHARLESTON SC
800 PM EDT SUN MAY 29 2016

NOTE: "FAIR" INDICATES FEW OR NO CLOUDS BELOW 12,000 FEET WITH NO
SIGNIFICANT WEATHER AND/OR OBSTRUCTIONS TO VISIBILITY.

NOT ALL STATIONS ARE QUALITY CONTROLLED. USE DATA WITH CAUTION...
ESPECIALLY DEWPOINT OBSERVATIONS.

SCZ027-030-031-034>040-042>050-300100-
...SOUTHEAST SOUTH CAROLINA...

CITY           SKY/WX    TMP DP  RH WIND       PRES   REMARKS
N CHARLESTON   CLOUDY    73  66  78 S5        29.90R
6HR MIN TEMP:  73; 6HR MAX TEMP:  80; 6HR PCP: TRACE;

WATERFRONT PRK   N/A     72  68  87 SE5       29.87R
MOUNT PLEASANT CLOUDY    72  70  94 CALM      29.91R
JOHNS ISLAND   CLOUDY    72  68  88 NE6       29.89S
PINOPOLIS        N/A     77  70  78 E6        29.82F
MONCKS CORNER  DRIZZLE   68  66  94 CALM      29.91S
SUMMERVILLE    DRIZZLE   72  72 100 NE5       29.91S
BEAUFORT MCAS  CLOUDY    70  68  93 W10       29.92R
6HR MIN TEMP:  69; 6HR MAX TEMP:  71; 6HR PCP:  0.39;

BEAUFORT ARPT  DRIZZLE   70  68  94 W12       29.91S
HILTON HEAD IS   N/A     68  68 100 W9G21     29.94S
WALTERBORO     CLOUDY    72  72 100 NW8       29.92S
ALLENDALE      LGT RAIN  68  68 100 CALM      29.95S

...SOUTHERN MIDLANDS AND PEE DEE...

CITY           SKY/WX    TMP DP  RH WIND       PRES   REMARKS
GEORGETOWN     CLOUDY    70  68  94 SE3       29.94R
KINGSTREE      CLOUDY    72  68  88 E3        29.93R
ORANGEBURG     CLOUDY    72  69  90 N12       29.94S
6HR MIN TEMP:  68; 6HR MAX TEMP:  72; 6HR PCP:  0.85;

BARNWELL       MOCLDY    72  72 100 CALM      29.97S
AIKEN          CLOUDY    73  63  68 N8        30.01S
MANNING        CLOUDY    72  68  88 CALM      29.93R
COLUMBIA       CLOUDY    77  64  64 N12G20    29.96R
6HR MIN TEMP:  70; 6HR MAX TEMP:  79; 6HR PCP: TRACE;

SUMTER         PTCLDY    72  68  88 N13       29.93R
6HR MIN TEMP:  71; 6HR MAX TEMP:  75; 6HR PCP:  1.01;

FLORENCE       CLOUDY    78  68  71 E6        29.95S
6HR MIN TEMP:  77; 6HR MAX TEMP:  85; 6HR PCP: TRACE;

MYRTLE BEACH   NOT AVBL
N MYRTLE BEACH CLOUDY    76  69  79 SE8       29.96R
6HR MIN TEMP:  76; 6HR MAX TEMP:  80;


$$

GAZ063-065-086>088-099>101-113>116-118-119-134>141-150-300100-
...SOUTHEAST GEORGIA...

CITY           SKY/WX    TMP DP  RH WIND       PRES   REMARKS
SAVANNAH ARPT  CLOUDY    70  63  78 W12       29.96F
6HR MIN TEMP:  67; 6HR MAX TEMP:  70; 6HR PCP:  0.02;

HUNTER AAF     PTCLDY    68  68 100 W5        29.94F
6HR MIN TEMP:  68; 6HR MAX TEMP:  73; 6HR PCP:  0.05;

FORT STEWART   CLOUDY    76  61  59 W6        29.96S
6HR MIN TEMP:  72; 6HR MAX TEMP:  79;

STATESBORO     CLOUDY    70  68  92 W8        29.98S
SYLVANIA       LGT RAIN  69  67  92 NW6       29.98F
CLAXTON        FAIR      74  65  74 W7        29.99S

...CSRA...CENTRAL AND FAR SOUTHEAST GEORGIA...

CITY           SKY/WX    TMP DP  RH WIND       PRES   REMARKS
THOMSON        PTCLDY    73  67  79 NW7       30.06S
AUGUSTA-BUSH   MOCLDY    76  61  59 N10       29.97S
6HR MIN TEMP:  70; 6HR MAX TEMP:  77; 6HR PCP: TRACE;

AUGUSTA-DANIEL CLOUDY    76  63  64 NW9       29.99S
SWAINSBORO     FAIR      75  63  64 NW6       30.01S
VIDALIA        PTCLDY    77  59  53 NW3       30.01F
EASTMAN        FAIR      79  64  61 CALM      30.04S
HAZLEHURST     FAIR      81  62  51 CALM      30.00F
ALMA           CLEAR     82  60  47 N3        30.00S
6HR MIN TEMP:  82; 6HR MAX TEMP:  86;

WAYCROSS       CLEAR     80  63  55 NW5       29.99F
JESUP          FAIR      75  55  50 N8        29.99S
BAXLEY         FAIR      81  61  50 N5        30.00S
BRUNSWICK      CLEAR     82  61  47 NW5       29.98S
SAINT SIMONS   CLEAR     82  60  47 W12       29.96F
6HR MIN TEMP:  82; 6HR MAX TEMP:  85;


$$

SCZ027-028-034-036>038-045-046-048>050-GAZ119-141-300100-
...LAKE AND SUPPLEMENTAL COASTAL OBSERVATIONS...

STATION/POSITION TIME  TEMP    WIND        PRES    WAVE   SWELL
                       AIR SEA DIR/SP/G            HT/PER HT/PER/DIR
                 (UTC) (F)     (DEG/KT/KT) (MB)    (FT/S) (FT/S/D)
WINYAH BAY       2345   72     170/  9     1013.0R
LAKE MURRAY      0000   75      30/  1/  6 1014.6R
ACE BASIN NERRS  2300   70     320/  2     1012.0S
FORT PULASKI     0000   69 75              1014.5F
SAPELO ISLAND    0000   80     310/ 11     1015.0S

$$

ANZ835-935-AMZ111-154-330-350-352-354-370-450-454-472-300100-
...C-MAN AND BUOY OBSERVATIONS...

STATION/POSITION TIME  TEMP    WIND        PRES    WAVE   SWELL
                       AIR SEA DIR/SP/G            HT/PER HT/PER/DIR
                 (UTC) (F)     (DEG/KT/KT) (MB)    (FT/S) (FT/S/D)
BUOY 41004       2350   73 78  200/ 16/ 19 1012.8F   5/ 6   3/ 8
BUOY 41008       2250   78 76  270/ 17/ 21 1014.4    3/ 4   2/ 40/ 8
FOLLY BEACH CMAN 0000   71     150/  4/  5 1012.3R
CAPERS NEARSHORE 0008   72 76  180/ 10/ 14 1012.6R
FRIPP NEARSHORE  0008   71 75  280/ 21/ 25 1012.2R


STATION/POSITION TIME  TEMP    WIND        PRES    WAVE   SWELL
                       AIR SEA DIR/SP/G            HT/PER HT/PER/DIR
                 (UTC) (F)     (DEG/KT/KT) (MB)    (FT/S) (FT/S/D)
5E ST. MARYS GA  0001      79                N/A     2/ 8
FRYING PAN BUOY  0000   78 79  170/ 14/ 17 1014.6S
BUOY 41025       2350   79 82  150/ 17/ 21 1017.1R   5/ 8   3/150/ 8
CAPE LOOKOUT NC  0000   76     140/  7/  8 1016.5R
BUOY 41002       2350   75 76  120/ 14/ 17 1018.1S   4/ 6   2/110/ 8
BUOY 41010       2320   79 80   40/  4/  6 1016.9F
ST AUGUSTINE FL  0000   79 81  140/  8/  9 1017.1R


$$




USA.gov is the U.S. government's official web portal to all federal, state and local government web resources and services.